Location: Brachbach
(49.1847°N, 9.7240°E)
Time: 12:17:33
(UTC+00:00)

Nimbus 7 Rocket - Pass Details

Date: 11 August 2024
Orbit: 921 x 965 km, 99.4° (Epoch: 14 September)

Event Time Altitude Azimuth Distance (km) Brightness Sun altitude
Rises 01:54:28 0° 7° (N) 3,600 8.5 -17.8°
Reaches altitude 10° 01:57:24 10° 354° (N) 2,645 7.4 -17.5°
Maximum altitude 02:01:49 23° 305° (NW) 1,884 6.0 -17.1°
Enters shadow 02:05:05 14° 265° (W) 2,321 6.1 -16.7°
